This is the latest recevied weather packets stored in our database for station/object W0AKY-13. If no packets are shown the sender has not sent any weather packets the latest 10 day(s).
| Time | Temp. | Humidity | Pressure | Rain* | Wind** | Luminosity | Snow |
|---|---|---|---|---|---|---|---|
| 1777898170 | 10.56° C | 87% | 1003.8 hPa | 0 mm | - | 19 W/m² | - |
| 1777897867 | 9.44° C | 88% | 1003.7 hPa | 0 mm | - | 18 W/m² | - |
| 1777897563 | 8.89° C | 89% | 1003.3 hPa | 0 mm | - | 17 W/m² | - |
| 1777897259 | 8.89° C | 88% | 1003.2 hPa | 0 mm | - | 16 W/m² | - |
| 1777896955 | 8.89° C | 89% | 1003.4 hPa | 0 mm | - | 15 W/m² | - |
| 1777896652 | 8.89° C | 89% | 1003.4 hPa | 0 mm | - | 14 W/m² | - |
| 1777896349 | 8.89° C | 90% | 1003.6 hPa | 0 mm | - | 13 W/m² | - |
| 1777896047 | 8.33° C | 91% | 1003.6 hPa | 0 mm | - | 12 W/m² | - |
| 1777895745 | 7.78° C | 92% | 1003.5 hPa | 0 mm | - | 10 W/m² | - |
| 1777895442 | 7.78° C | 91% | 1003.4 hPa | 0 mm | - | 9 W/m² | - |
| 1777895140 | 7.78° C | 91% | 1003.3 hPa | 0 mm | - | 8 W/m² | - |
| 1777894837 | 7.78° C | 91% | 1003.5 hPa | 0 mm | - | 6 W/m² | - |
| 1777894533 | 7.78° C | 90% | 1003.6 hPa | 0 mm | - | 5 W/m² | - |
| 1777894231 | 7.78° C | 90% | 1003.8 hPa | 0 mm | - | 4 W/m² | - |
| 1777893927 | 7.78° C | 89% | 1003.8 hPa | 0 mm | - | 2 W/m² | - |
| 1777893624 | 7.78° C | 89% | 1003.7 hPa | 0 mm | - | 2 W/m² | - |
| 1777893320 | 8.33° C | 88% | 1003.7 hPa | 0 mm | - | 1 W/m² | - |
| 1777893016 | 8.33° C | 88% | 1003.8 hPa | 0 mm | - | 0 W/m² | - |
| 1777892714 | 8.89° C | 88% | 1003.9 hPa | 0 mm | - | 0 W/m² | - |
| 1777892410 | 8.33° C | 89% | 1003.8 hPa | 0 mm | - | 0 W/m² | - |
| 1777892106 | 8.33° C | 89% | 1003.8 hPa | 0 mm | - | 0 W/m² | - |
| 1777891803 | 8.89° C | 89% | 1003.8 hPa | 0 mm | - | 0 W/m² | - |
| 1777891500 | 8.89° C | 88% | 1003.7 hPa | 0 mm | - | 0 W/m² | - |
| 1777891195 | 8.89° C | 87% | 1003.9 hPa | 0 mm | - | 0 W/m² | - |
| 1777890890 | 8.89° C | 86% | 1003.9 hPa | 0 mm | - | 0 W/m² | - |
* Rain latest hour (hover to see other rain measurements)
** Current wind speed in m/s (hover to see current wind gust speed)